Regional Weather Roundup
Issued by NWS Columbia, SC

Home | Current Version | Previous Version | Text Only | Print | Product List | Glossary On
Versions: 1 2 3 4 5 6 7 8 9 10 11 12 13 14 15 16 17 18 19 20 21 22 23 24 25 26 27 28 29 30 31 32 33 34 35 36 37 38 39 40 41 42 43 44 45 46 47 48 49
000
ASUS42 KCAE 020810
RWRCAE
REGIONAL WEATHER ROUNDUP
NATIONAL WEATHER SERVICE COLUMBIA SC
400 AM EDT SUN AUG 02 2015

NOTE: "FAIR" INDICATES FEW OR NO CLOUDS BELOW 12,000 FEET WITH NO
SIGNIFICANT WEATHER AND/OR OBSTRUCTIONS TO VISIBILITY.

NOT ALL STATIONS ARE QUALITY CONTROLLED BY THE NATIONAL
WEATHER SERVICE. USE DATA WITH CAUTION...ESPECIALLY
DEWPOINT OBSERVATIONS.

SCZ001>056-GAZ040-063>065-077-020900-
...UPSTATE SOUTH CAROLINA...

CITY           SKY/WX    TMP DP  RH WIND       PRES   REMARKS
ANDERSON       CLEAR     68  61  78 N3        29.94S
SPARTANBURG      N/A     70  61  73 CALM      29.94F
CLEMSON        CLEAR     71  65  81 CALM      29.96R
GREENVILLE     CLEAR     74  57  55 NE8       29.96S
GREENWOOD      CLEAR     67  65  93 CALM      29.94S
GREER          CLEAR     73  58  59 N3        29.94S
ROCK HILL      CLEAR     66  63  90 N5        29.94F
LAURENS        SUNNY     64  63  94 N6        29.93S


...CENTRAL SOUTH CAROLINA...

CITY           SKY/WX    TMP DP  RH WIND       PRES   REMARKS
COLUMBIA APT   MOCLDY    77  70  79 CALM      29.91S
COLUMBIA OWENS PTCLDY    76  71  85 CALM      29.92F
DARLINGTON     CLEAR     73  68  83 SW3       29.93S
FLORENCE       CLEAR     75  73  93 CALM      29.91S
MCENTIRE ANGB  PTCLDY    73  71  94 CALM      29.91F
ORANGEBURG     CLOUDY    76  73  91 CALM      29.91F
SUMTER SHAW    CLEAR     75  72  88 W5        29.90S
NEWBERRY       SUNNY     68  66  94 E5        29.95S
AIKEN          FAIR      72  70  94 CALM      29.95S
BARNWELL       CLOUDY    75  73  94 CALM      29.91F
MANNING        RAIN      72  72 100 CALM      29.91F
CAMDEN         FAIR      73  72  94 CALM      29.92F
LANCASTER      SUNNY     68  68 100 CALM      29.93S
WINNSBORO      SUNNY     72  70  94 SE3       29.92F


...EASTERN AND COASTAL SOUTH CAROLINA...

CITY           SKY/WX    TMP DP  RH WIND       PRES   REMARKS
MYRTLE BEACH   CLEAR     75  70  83 CALM      29.92S
N MYRTLE BCH   CLEAR     75  72  90 CALM      29.90S
CONWAY         FAIR      72  72 100 CALM      29.91S FOG
MARION         FAIR      73  70  88 CALM      29.91S
HARTSVILLE     FAIR      72  70  94 CALM      29.92S
FLORENCE       CLEAR     75  73  93 CALM      29.91S
DARLINGTON     CLEAR     73  68  83 SW3       29.93S
CHARLESTON APT CLEAR     77  74  90 CALM      29.90S
MOUNT PLEASANT LGT RAIN  73  73 100 CALM      29.90S
WALTERBORO     PTSUNNY   75  73  94 CALM      29.91S FOG
BEAUFORT       PTCLDY    77  75  93 CALM      29.89S


...EASTERN GEORGIA...

CITY           SKY/WX    TMP DP  RH WIND       PRES   REMARKS
AUGUSTA BUSH F PTCLDY    73  71  93 CALM      29.89F
AUGUSTA DANIEL PTCLDY    75  71  87 CALM      29.91F
THOMSON        PTCLDY    73  73 100 CALM      29.95F
WASHINGTON     FAIR      72  72 100 CALM      29.91S
SYLVANIA       FOG       75  75 100 CALM      29.90F VSB 1/2
STATESBORO     FOG       74  32  21 CALM      29.89F VSB 1/2
SAVANNAH       CLEAR     76  73  91 CALM      29.90S


...SOUTHERN NORTH CAROLINA...

CITY           SKY/WX    TMP DP  RH WIND       PRES   REMARKS
CHARLOTTE      PTCLDY    71  58  63 N5        29.95S
MONROE         CLEAR     70  60  70 CALM      29.93F
WADESBORO      SUNNY     67  60  77 CALM      29.92F
ROCKINGHAM     SUNNY     71  65  82 CALM      29.92F
RUTHERFORDTON  PTCLDY    67  59  77 N3        29.98S
ASHEVILLE      PTCLDY    61  56  83 NW5       30.04S

$$


USA.gov is the U.S. government's official web portal to all federal, state and local government web resources and services.